PDT,Max TemperatureF,Mean TemperatureF,Min TemperatureF,Max Dew PointF,MeanDew PointF,Min DewpointF,Max Humidity, Mean Humidity, Min Humidity, Max Sea Level PressureIn, Mean Sea Level PressureIn, Min Sea Level PressureIn, Max VisibilityMiles, Mean VisibilityMiles, Min VisibilityMiles, Max Wind SpeedMPH, Mean Wind SpeedMPH, Max Gust SpeedMPH,PrecipitationIn, CloudCover, Events, WindDirDegrees
2013-7-1,70,65,60,60,57,55,90,79,68,30.10,30.02,29.97,9,4,0,13,5,20,0.00,7,Fog,317
2013-7-2,71,62,52,57,55,47,87,73,59,30.17,30.14,30.11,8,6,2,15,7,20,0.00,5,,324
2013-7-3,68,61,53,54,52,46,86,75,63,30.21,30.17,30.15,8,7,6,15,4,20,0.00,7,,306
2013-7-4,68,64,59,54,53,52,78,71,63,30.15,30.13,30.09,8,8,6,14,6,20,0.00,7,,283
2013-7-5,69,63,56,56,54,52,86,75,63,30.07,30.02,29.99,7,6,5,12,4,17,0.00,5,,216
2013-7-6,71,64,56,57,54,52,93,73,53,30.01,29.98,29.92,8,4,0,14,5,17,0.00,6,Fog,249
2013-7-7,68,63,57,55,54,52,86,77,67,30.00,29.97,29.94,6,5,2,12,3,23,0.00,7,,232
2013-7-8,68,62,56,55,53,51,93,80,67,30.14,30.10,30.01,7,5,1,13,4,17,0.00,6,,244
2013-7-9,69,62,55,56,53,49,93,76,59,30.16,30.13,30.11,10,5,0,15,6,20,0.00,6,Fog,321
2013-7-10,66,59,52,51,48,46,83,70,56,30.13,30.10,30.06,9,7,5,17,6,24,0.00,6,,303
2013-7-11,67,59,50,51,49,46,86,67,48,30.12,30.08,30.05,9,8,6,14,5,18,T,5,Rain,297
2013-7-12,67,58,48,52,49,44,89,73,56,30.15,30.08,30.04,9,8,7,14,4,18,0.00,4,,264
2013-7-13,70,60,50,54,50,46,89,73,57,30.21,30.19,30.16,9,8,6,14,4,20,0.00,3,,292
2013-7-14,70,60,50,54,50,44,83,68,53,30.18,30.14,30.07,9,7,6,15,4,20,0.00,3,,286
2013-7-15,86,66,46,56,47,41,86,54,21,30.06,30.00,29.90,10,8,5,17,7,23,0.00,0,,348
2013-7-16,91,70,49,55,49,43,77,51,24,29.93,29.86,29.82,10,9,7,15,4,17,T,1,Rain,196
2013-7-17,66,63,59,56,55,53,84,76,67,30.23,30.13,29.93,8,6,2,15,6,23,T,8,Rain,198
2013-7-18,69,62,55,55,52,50,87,71,55,30.26,30.23,30.20,10,8,7,13,4,17,0.00,6,,309
2013-7-19,65,61,57,54,53,52,86,77,67,30.21,30.18,30.14,9,6,2,13,5,22,0.00,8,,320
2013-7-20,61,59,56,54,52,52,93,83,72,30.13,30.11,30.03,7,4,2,10,4,17,T,8,Rain,315
2013-7-21,62,59,56,55,54,53,93,86,78,30.02,30.00,29.99,8,3,1,10,3,13,0.00,8,,241
2013-7-22,62,59,56,55,54,52,87,83,78,30.09,30.04,30.00,6,3,1,8,3,12,T,8,Rain,243
2013-7-23,69,62,55,56,53,50,93,78,63,30.11,30.09,30.07,9,6,2,14,5,17,0.00,6,,326
2013-7-24,69,62,55,55,53,51,86,75,63,30.12,30.10,30.09,10,6,2,14,5,17,T,7,,320
2013-7-25,73,62,50,56,53,47,86,68,49,30.16,30.13,30.09,9,5,1,13,5,18,0.00,5,,305
2013-7-26,70,58,46,52,48,42,86,67,47,30.22,30.19,30.15,9,7,4,16,5,22,0.00,1,,310
2013-7-27,70,60,49,54,51,46,86,70,53,30.19,30.13,30.05,8,6,4,13,4,15,0.00,5,,210
2013-7-28,62,59,56,52,52,51,86,79,72,30.05,30.01,30.00,7,5,2,13,5,18,0.00,8,,166
2013-7-29,67,62,56,54,52,51,93,78,63,30.06,30.02,29.99,8,6,2,13,4,26,0.00,7,,227
2013-7-30,67,61,55,54,53,52,93,80,67,30.16,30.12,30.06,10,5,1,12,3,15,0.00,8,,227
2013-7-31,66,61,56,54,53,51,93,80,67,30.15,30.12,30.07,10,5,1,12,3,15,0.01,7,,240